C/2018 U1 ( Lemmon )

Japanese version
Home page
Updated on June 8, 2019

---------------------------------------------------------------------

* Profile

Discovery Date October 27, 2018
Magnitude 20.0 mag
Discoverer R. A. Kowalski (Mount Lemmon Survey)

* Pictures

* Orbital Elements

Epoch 2021 Nov. 2.0 TT = JDT 2459520.5
T 2021 Nov. 3.09019 TT                                  MPCW
q   4.9927669            (2000.0)            P               Q
z  -0.0002846      Peri.  180.46715     -0.25316085     -0.30188949
 +/-0.0000205      Node    75.48159     -0.88448675     +0.45710384
e   1.0014209      Incl.  108.29861     -0.39190913     -0.83661151
From 231 observations 2018 Oct. 27-2019 June 1, mean residual 0".4.

* Finding Charts

* Magnitudes Graph

        m1 = 5.0 + 5 log d + 10.0 log r

---------------------------------------------------------------------

The orbital elements are published on M.P.E.C. 2019-L24.
The charts are made with StellaNavigator Ver.10 (AstroArts).
The magnitudes graphs are made with Comet for Windows.

---------------------------------------------------------------------

Copyright(C) Seiichi Yoshida (comet@aerith.net). All rights reserved.